星链-2086 (STARLINK-2086 )

导读 | 豆包AI

STARLINK-2086是美国太空探索技术公司(SpaceX)星链星座的V1.0版本通信卫星,于2021年1月20日发射升空,属于星链全球卫星互联网项目的组网卫星。它运行在近地轨道,依托星链低轨星座架构,为全球尤其是偏远区域提供高速低延迟的宽带互联网接入服务,是SpaceX持续扩展星链网络覆盖与服务能力的组成单元。

基本信息
目录编号:
47370
目录名称:
STARLINK-2086
国际标识:
2021-005X
轨道中心:
EARTH
卫星名称:
星链-2086
卫星全名:
星链-2086 (STARLINK-2086 )
卫星状态:
已陨落 最后检测时间 2026-01-15
发射日期:
2021-01-20 UTC
国别 :
美国 (US)
星等 :
--
轨道信息
数据来源 国际轨道数据
星历时间: 2026-01-15T08:47:44+0800
轨道信息已过期105天
半长轴: 6533.566km
偏心率: 0.0005447
轨道倾角: 53.020°
近地点辐角 276.275°
升交点赤经 195.358°
平近点角 83.768°
近地点: 151.87km
远地点: 158.988km
周期: 87.596分钟
每日圈数: 16.439076
详细信息
固有亮度:
5
最大亮度:
2.5
卫星平台:
Starlink V1.0
覆盖范围:
全球
运营商:
太空探索技术公司
运营商所在国:
美国
制造商(研发单位):
太空探索技术公司
制造商所在国:
美国
使用方式:
暂无
卫星简介
星链(Starlink)计划是由太空探索技术公司(SpaceX)提出的一个巨型低轨卫星互联网星座项目,计划在2019年至2024年间在太空搭建由约1.2万颗卫星组成的“星链”网络,其中1584颗将部署在地球上空550千米处的近地轨道,并从2020年开始工作。该卫星仍在工作。